Location: Marcé
(47.5801°N, 0.3280°W)
Time: 15:43:34
(UTC+01:00)

Vanguard 3 - Pass Details

Date: 06 December 2021
Orbit: 508 x 3260 km, 33.3° (Epoch: 20 January)

Event Time Altitude Azimuth Distance (km) Brightness Sun altitude
Rises 02:42:44 0° 211° (SSW) 6,541 - -56.6°
Reaches altitude 10° 02:47:32 10° 202° (SSW) 5,805 - -55.9°
Exits shadow 03:02:32 32° 150° (SSE) 4,572 10.7 -53.9°
Maximum altitude 03:02:53 32° 148° (SSE) 4,571 10.7 -53.8°
Drops below altitude 10° 03:18:07 10° 95° (E) 5,800 11.8 -51.6°
Sets 03:22:50 0° 86° (E) 6,540 12.3 -50.9°
